Air Quality Table

TIMESTAMP NO2 SO2 O3 PM10 PM2.5 TEMP HUM AIRPRES WS WD NO
2022-01-24 07:00 73.19 µg/m3 2.24 µg/m3 6.56 µg/m3 10.25 µg/m3 5.48 µg/m3 9.75 °C 66.12 % 1,018.56 mbar 1.84 m/s 339.88 Deg 23.09 µg/m3
2022-01-24 06:00 26.19 µg/m3 1.88 µg/m3 44.95 µg/m3 8.34 µg/m3 8.65 µg/m3 9.96 °C 53.36 % 1,018.51 mbar 1.63 m/s 166.98 Deg 3.57 µg/m3
2022-01-24 05:00 10.42 µg/m3 1.64 µg/m3 65.37 µg/m3 8.13 µg/m3 11.27 µg/m3 10.21 °C 59.5 % 1,018.77 mbar 1.39 m/s 20.78 Deg 0.81 µg/m3
2022-01-24 04:00 7.14 µg/m3 1.7 µg/m3 71.8 µg/m3 10.73 µg/m3 12.92 µg/m3 10.35 °C 58.37 % 1,019.01 mbar 1.39 m/s 30.85 Deg 0.36 µg/m3
2022-01-24 03:00 3 µg/m3 1.84 µg/m3 78.69 µg/m3 13.27 µg/m3 17.91 µg/m3 10.78 °C 56.12 % 1,019.33 mbar 1.67 m/s 32.57 Deg 0.22 µg/m3
2022-01-24 02:00 2.41 µg/m3 1.65 µg/m3 80.48 µg/m3 17 µg/m3 16.71 µg/m3 10.84 °C 65.34 % 1,019.54 mbar 1.69 m/s 111.43 Deg 0.22 µg/m3
2022-01-24 01:00 3.09 µg/m3 1.83 µg/m3 83.28 µg/m3 19.02 µg/m3 7.52 µg/m3 10.97 °C 67.25 % 1,019.62 mbar 1.91 m/s 175.12 Deg 0.21 µg/m3
2022-01-24 00:00 8.57 µg/m3 1.77 µg/m3 76.44 µg/m3 16.27 µg/m3 3.23 µg/m3 11.38 °C 65.87 % 1,019.69 mbar 1.97 m/s 234.23 Deg 0.52 µg/m3
2022-01-23 23:00 17.13 µg/m3 1.64 µg/m3 60.09 µg/m3 23.55 µg/m3 2.23 µg/m3 11.08 °C 65.1 % 1,019.52 mbar 1.24 m/s 315.07 Deg 1.24 µg/m3
2022-01-23 22:00 20.61 µg/m3 1.86 µg/m3 56.13 µg/m3 21.95 µg/m3 1.13 µg/m3 11.01 °C 66.35 % 1,019.68 mbar 1.56 m/s 307.52 Deg 1.38 µg/m3
2022-01-23 21:00 23.25 µg/m3 1.6 µg/m3 55.1 µg/m3 29.37 µg/m3 1.43 µg/m3 11.02 °C 64.87 % 1,019.76 mbar 1.57 m/s 293.33 Deg 1.83 µg/m3
2022-01-23 20:00 30.7 µg/m3 1.88 µg/m3 49.5 µg/m3 19.06 µg/m3 2.85 µg/m3 11.01 °C 62.99 % 1,019.87 mbar 1.76 m/s 297.7 Deg 2.75 µg/m3
2022-01-23 19:00 38.7 µg/m3 1.85 µg/m3 45.61 µg/m3 11.18 µg/m3 5.71 µg/m3 11.36 °C 62.56 % 1,019.87 mbar 1.64 m/s 306.03 Deg 5.18 µg/m3
2022-01-23 18:00 23.43 µg/m3 1.89 µg/m3 66.57 µg/m3 9.53 µg/m3 4.95 µg/m3 12.1 °C 59.88 % 1,019.55 mbar 1.98 m/s 340.83 Deg 1.63 µg/m3
2022-01-23 17:00 15.58 µg/m3 1.89 µg/m3 75.16 µg/m3 7.8 µg/m3 2.16 µg/m3 12.39 °C 59.18 % 1,019.59 mbar 2.77 m/s 262.72 Deg 1.82 µg/m3
2022-01-23 16:00 8.97 µg/m3 1.76 µg/m3 80.14 µg/m3 7.26 µg/m3 2.45 µg/m3 12.7 °C 56.47 % 1,019.68 mbar 3.24 m/s 346.1 Deg 1.67 µg/m3
2022-01-23 15:00 8.21 µg/m3 1.77 µg/m3 80.86 µg/m3 7.16 µg/m3 4.91 µg/m3 12.87 °C 52.53 % 1,019.82 mbar 3.46 m/s 340.98 Deg 1.78 µg/m3
2022-01-23 14:00 5.28 µg/m3 1.8 µg/m3 82.88 µg/m3 9.56 µg/m3 5.55 µg/m3 13.05 °C 45.31 % 1,020.30 mbar 3.26 m/s 95.95 Deg 1.2 µg/m3
2022-01-23 13:00 6.54 µg/m3 1.92 µg/m3 79.74 µg/m3 14.55 µg/m3 5.67 µg/m3 13.15 °C 43.53 % 1,021.04 mbar 2.56 m/s 9.1 Deg 1.71 µg/m3
2022-01-23 12:00 6.71 µg/m3 2.23 µg/m3 76.98 µg/m3 20.99 µg/m3 9.03 µg/m3 12.93 °C 47.85 % 1,021.62 mbar 2.41 m/s 105.35 Deg 1.66 µg/m3
2022-01-23 11:00 8.06 µg/m3 1.9 µg/m3 73.26 µg/m3 14.23 µg/m3 12.62 µg/m3 12.61 °C 55.73 % 1,021.63 mbar 2.4 m/s 27.85 Deg 2.03 µg/m3
2022-01-23 10:00 10.6 µg/m3 1.63 µg/m3 67.55 µg/m3 10.74 µg/m3 20.02 µg/m3 12.2 °C 60.79 % 1,021.16 mbar 2.6 m/s 39.17 Deg 2.42 µg/m3

It is to be noted that the data is provisional and subject to quality assurance procedures. For validated data kindly refer your request to contact.air@era.org.mt